Time,TemperatureF,DewpointF,PressureIn,WindDirection,WindDirectionDegrees,WindSpeedMPH,WindSpeedGustMPH,Humidity,HourlyPrecipIn,Conditions,Clouds,dailyrainin,SoftwareType,DateUTC
2013-09-16 00:00:00,61.2,58.6,30.10,North,355,0.0,0.0,91,0.00,,,0.03,Wunderground v.1.13,2013-09-16 04:00:00,
2013-09-16 00:05:00,61.0,58.4,30.10,North,355,0.0,0.0,91,0.00,,,0.00,Wunderground v.1.13,2013-09-16 04:05:00,
2013-09-16 00:10:00,60.9,58.3,30.10,North,355,0.0,0.0,91,0.00,,,0.01,Wunderground v.1.13,2013-09-16 04:10:00,
2013-09-16 00:20:00,60.6,58.0,30.10,North,355,0.0,0.0,91,0.00,,,0.01,Wunderground v.1.13,2013-09-16 04:20:00,
2013-09-16 00:25:00,60.5,57.9,30.10,North,355,0.0,0.0,91,0.00,,,0.01,Wunderground v.1.13,2013-09-16 04:25:00,
2013-09-16 00:35:00,60.4,58.1,30.11,North,355,0.0,0.0,92,0.00,,,0.01,Wunderground v.1.13,2013-09-16 04:35:00,
2013-09-16 00:40:00,60.4,58.1,30.11,North,355,0.0,0.0,92,0.00,,,0.02,Wunderground v.1.13,2013-09-16 04:40:00,
2013-09-16 00:45:00,60.4,58.4,30.11,North,355,0.0,0.0,93,0.00,,,0.02,Wunderground v.1.13,2013-09-16 04:45:00,
2013-09-16 00:50:00,60.4,58.4,30.11,North,355,0.0,0.0,93,0.00,,,0.02,Wunderground v.1.13,2013-09-16 04:50:00,
2013-09-16 00:55:00,60.4,58.4,30.12,North,355,0.0,0.0,93,0.00,,,0.02,Wunderground v.1.13,2013-09-16 04:55:00,
2013-09-16 01:05:00,60.2,57.9,30.12,North,355,0.0,0.0,92,0.00,,,0.02,Wunderground v.1.13,2013-09-16 05:05:00,
2013-09-16 01:15:00,59.8,57.5,30.12,North,355,0.0,0.0,92,0.00,,,0.02,Wunderground v.1.13,2013-09-16 05:15:00,
2013-09-16 01:25:00,59.5,57.2,30.13,North,355,0.0,0.0,92,0.00,,,0.02,Wunderground v.1.13,2013-09-16 05:25:00,
2013-09-16 01:35:00,59.4,57.1,30.13,North,355,0.0,0.0,92,0.00,,,0.02,Wunderground v.1.13,2013-09-16 05:35:00,
2013-09-16 01:45:00,59.0,56.7,30.13,NW,321,0.0,0.0,92,0.00,,,0.03,Wunderground v.1.13,2013-09-16 05:45:00,
2013-09-16 01:55:00,58.8,56.5,30.14,NW,321,0.0,1.0,92,0.21,,,0.06,Wunderground v.1.13,2013-09-16 05:55:00,
2013-09-16 02:05:00,58.4,56.4,30.13,NW,317,0.0,0.0,93,0.08,,,0.08,Wunderground v.1.13,2013-09-16 06:05:00,
2013-09-16 02:10:00,58.4,56.4,30.13,NW,317,0.0,0.0,93,0.08,,,0.08,Wunderground v.1.13,2013-09-16 06:10:00,
2013-09-16 02:15:00,58.3,56.3,30.13,NW,317,0.0,0.0,93,0.05,,,0.08,Wunderground v.1.13,2013-09-16 06:15:00,
2013-09-16 02:25:00,58.1,56.1,30.13,NW,317,0.0,0.0,93,0.00,,,0.08,Wunderground v.1.13,2013-09-16 06:25:00,
2013-09-16 02:35:00,58.0,56.0,30.13,NW,317,0.0,0.0,93,0.00,,,0.09,Wunderground v.1.13,2013-09-16 06:35:00,
2013-09-16 02:45:00,58.0,56.0,30.13,NW,315,0.0,0.0,93,0.00,,,0.09,Wunderground v.1.13,2013-09-16 06:45:00,
2013-09-16 02:50:00,58.0,55.7,30.12,NW,315,0.0,0.0,92,0.00,,,0.09,Wunderground v.1.13,2013-09-16 06:50:00,
2013-09-16 03:00:00,57.9,55.9,30.12,NW,315,0.0,0.0,93,0.00,,,0.09,Wunderground v.1.13,2013-09-16 07:00:00,
2013-09-16 03:10:00,58.0,56.0,30.12,NW,315,0.0,0.0,93,0.00,,,0.09,Wunderground v.1.13,2013-09-16 07:10:00,
2013-09-16 03:20:00,58.0,56.0,30.12,NW,315,0.0,0.0,93,0.00,,,0.09,Wunderground v.1.13,2013-09-16 07:20:00,
2013-09-16 03:30:00,58.0,56.0,30.12,NW,315,0.0,0.0,93,0.00,,,0.09,Wunderground v.1.13,2013-09-16 07:30:00,
2013-09-16 03:40:00,58.0,56.0,30.12,NW,315,0.0,0.0,93,0.00,,,0.09,Wunderground v.1.13,2013-09-16 07:40:00,
2013-09-16 03:50:00,58.0,56.0,30.13,NW,315,0.0,0.0,93,0.00,,,0.10,Wunderground v.1.13,2013-09-16 07:50:00,
2013-09-16 03:55:00,58.0,56.0,30.12,NW,315,0.0,0.0,93,0.00,,,0.10,Wunderground v.1.13,2013-09-16 07:55:00,
2013-09-16 04:05:00,58.0,56.0,30.13,NW,315,0.0,0.0,93,0.08,,,0.12,Wunderground v.1.13,2013-09-16 08:05:00,
2013-09-16 04:10:00,57.9,55.9,30.13,NW,315,0.0,0.0,93,0.08,,,0.12,Wunderground v.1.13,2013-09-16 08:10:00,
2013-09-16 04:20:00,57.8,55.8,30.12,NW,315,0.0,0.0,93,0.04,,,0.12,Wunderground v.1.13,2013-09-16 08:20:00,
2013-09-16 04:30:00,57.8,55.8,30.12,NW,315,0.0,0.0,93,0.00,,,0.12,Wunderground v.1.13,2013-09-16 08:30:00,
2013-09-16 04:40:00,57.8,56.1,30.12,NW,315,0.0,0.0,94,0.00,,,0.12,Wunderground v.1.13,2013-09-16 08:40:00,
2013-09-16 04:50:00,57.8,56.1,30.13,NW,315,0.0,0.0,94,0.00,,,0.12,Wunderground v.1.13,2013-09-16 08:50:00,
2013-09-16 05:00:00,57.8,55.8,30.13,WNW,295,0.0,0.0,93,0.00,,,0.12,Wunderground v.1.13,2013-09-16 09:00:00,
2013-09-16 05:10:00,57.5,55.5,30.13,WNW,295,0.0,0.0,93,0.00,,,0.12,Wunderground v.1.13,2013-09-16 09:10:00,
2013-09-16 05:15:00,57.3,55.6,30.13,WNW,295,0.0,0.0,94,0.00,,,0.12,Wunderground v.1.13,2013-09-16 09:15:00,
2013-09-16 05:25:00,57.1,55.4,30.14,WNW,295,0.0,0.0,94,0.00,,,0.12,Wunderground v.1.13,2013-09-16 09:25:00,
2013-09-16 05:35:00,56.8,55.1,30.14,WNW,295,0.0,0.0,94,0.00,,,0.12,Wunderground v.1.13,2013-09-16 09:35:00,
2013-09-16 05:40:00,56.6,54.9,30.14,WNW,295,0.0,0.0,94,0.00,,,0.12,Wunderground v.1.13,2013-09-16 09:40:00,
2013-09-16 05:50:00,56.2,54.5,30.15,WNW,295,0.0,0.0,94,0.00,,,0.12,Wunderground v.1.13,2013-09-16 09:50:00,
2013-09-16 05:55:00,56.1,54.4,30.15,WNW,295,0.0,0.0,94,0.00,,,0.12,Wunderground v.1.13,2013-09-16 09:55:00,
2013-09-16 06:05:00,55.7,54.0,30.15,WNW,295,0.0,0.0,94,0.00,,,0.12,Wunderground v.1.13,2013-09-16 10:05:00,
2013-09-16 06:15:00,55.7,54.0,30.15,WNW,295,0.0,0.0,94,0.00,,,0.12,Wunderground v.1.13,2013-09-16 10:15:00,
2013-09-16 06:20:00,55.7,54.0,30.15,WNW,295,0.0,0.0,94,0.00,,,0.12,Wunderground v.1.13,2013-09-16 10:20:00,
2013-09-16 06:30:00,55.5,53.8,30.16,WNW,295,0.0,0.0,94,0.00,,,0.12,Wunderground v.1.13,2013-09-16 10:30:00,
2013-09-16 06:40:00,55.3,53.6,30.16,WNW,295,0.0,0.0,94,0.00,,,0.12,Wunderground v.1.13,2013-09-16 10:40:00,
2013-09-16 06:45:00,55.2,53.8,30.16,WNW,295,0.0,0.0,95,0.00,,,0.12,Wunderground v.1.13,2013-09-16 10:45:00,
2013-09-16 06:55:00,55.1,53.7,30.16,WNW,295,0.0,0.0,95,0.00,,,0.12,Wunderground v.1.13,2013-09-16 10:55:00,
2013-09-16 07:05:00,54.8,53.1,30.16,WNW,295,0.0,0.0,94,0.00,,,0.12,Wunderground v.1.13,2013-09-16 11:05:00,
2013-09-16 07:15:00,54.4,52.7,30.17,WNW,295,0.0,0.0,94,0.00,,,0.12,Wunderground v.1.13,2013-09-16 11:15:00,
2013-09-16 07:20:00,54.2,52.5,30.17,WNW,295,0.0,0.0,94,0.00,,,0.12,Wunderground v.1.13,2013-09-16 11:20:00,
2013-09-16 07:30:00,53.7,52.3,30.18,WNW,295,0.0,0.0,95,0.00,,,0.12,Wunderground v.1.13,2013-09-16 11:30:00,
2013-09-16 07:35:00,53.5,52.1,30.18,WNW,295,0.0,0.0,95,0.00,,,0.12,Wunderground v.1.13,2013-09-16 11:35:00,
2013-09-16 07:40:00,53.6,52.2,30.18,WNW,295,0.0,0.0,95,0.00,,,0.12,Wunderground v.1.13,2013-09-16 11:40:00,
2013-09-16 07:50:00,53.7,52.3,30.18,WNW,295,0.0,0.0,95,0.00,,,0.12,Wunderground v.1.13,2013-09-16 11:50:00,
2013-09-16 08:00:00,54.4,53.3,30.19,WNW,295,0.0,0.0,96,0.00,,,0.12,Wunderground v.1.13,2013-09-16 12:00:00,
2013-09-16 08:05:00,54.6,53.5,30.19,WNW,295,0.0,0.0,96,0.00,,,0.12,Wunderground v.1.13,2013-09-16 12:05:00,
2013-09-16 08:15:00,55.0,53.9,30.20,WNW,295,0.0,0.0,96,0.00,,,0.12,Wunderground v.1.13,2013-09-16 12:15:00,
2013-09-16 08:20:00,55.0,53.6,30.20,WNW,295,0.0,0.0,95,0.00,,,0.12,Wunderground v.1.13,2013-09-16 12:20:00,
2013-09-16 08:25:00,55.1,53.7,30.20,WNW,295,0.0,0.0,95,0.00,,,0.12,Wunderground v.1.13,2013-09-16 12:25:00,
2013-09-16 08:35:00,55.5,54.4,30.20,WNW,295,0.0,0.0,96,0.00,,,0.12,Wunderground v.1.13,2013-09-16 12:35:00,
2013-09-16 08:45:00,56.6,55.5,30.20,WNW,295,0.0,0.0,96,0.00,,,0.12,Wunderground v.1.13,2013-09-16 12:45:00,
2013-09-16 08:55:00,57.5,56.4,30.20,WNW,295,0.0,0.0,96,0.00,,,0.12,Wunderground v.1.13,2013-09-16 12:55:00,
2013-09-16 09:00:00,57.8,56.7,30.20,WNW,296,0.0,0.0,96,0.00,,,0.12,Wunderground v.1.13,2013-09-16 13:00:00,
2013-09-16 09:05:00,58.2,57.1,30.20,WNW,296,0.0,0.0,96,0.00,,,0.12,Wunderground v.1.13,2013-09-16 13:05:00,
2013-09-16 09:15:00,59.2,58.1,30.21,North,9,0.0,0.0,96,0.00,,,0.12,Wunderground v.1.13,2013-09-16 13:15:00,
2013-09-16 09:25:00,59.4,58.0,30.21,NW,324,0.0,0.0,95,0.00,,,0.12,Wunderground v.1.13,2013-09-16 13:25:00,
2013-09-16 09:30:00,59.4,58.0,30.22,NNE,24,0.0,0.0,95,0.00,,,0.12,Wunderground v.1.13,2013-09-16 13:30:00,
2013-09-16 09:35:00,59.4,57.7,30.22,NNE,24,0.0,0.0,94,0.00,,,0.12,Wunderground v.1.13,2013-09-16 13:35:00,
2013-09-16 09:45:00,59.6,57.9,30.22,NNE,24,0.0,0.0,94,0.00,,,0.12,Wunderground v.1.13,2013-09-16 13:45:00,
2013-09-16 09:55:00,59.8,58.1,30.22,WNW,302,0.0,0.0,94,0.00,,,0.12,Wunderground v.1.13,2013-09-16 13:55:00,
2013-09-16 10:00:00,59.9,57.9,30.21,NNW,340,0.0,0.0,93,0.00,,,0.12,Wunderground v.1.13,2013-09-16 14:00:00,
2013-09-16 10:10:00,60.4,58.4,30.22,NNW,348,1.0,1.0,93,0.00,,,0.12,Wunderground v.1.13,2013-09-16 14:10:00,
2013-09-16 10:15:00,60.8,58.8,30.22,NNW,348,0.0,0.0,93,0.00,,,0.12,Wunderground v.1.13,2013-09-16 14:15:00,
2013-09-16 10:25:00,61.2,58.9,30.22,North,5,0.0,0.0,92,0.00,,,0.12,Wunderground v.1.13,2013-09-16 14:25:00,
2013-09-16 10:30:00,61.3,58.7,30.22,NNE,15,0.0,4.0,91,0.00,,,0.12,Wunderground v.1.13,2013-09-16 14:30:00,
2013-09-16 10:40:00,61.3,58.3,30.23,North,351,1.0,3.0,90,0.00,,,0.12,Wunderground v.1.13,2013-09-16 14:40:00,
2013-09-16 10:50:00,61.4,58.1,30.23,North,11,1.0,1.0,89,0.00,,,0.12,Wunderground v.1.13,2013-09-16 14:50:00,
2013-09-16 10:55:00,61.4,58.1,30.23,NE,36,1.0,1.0,89,0.00,,,0.12,Wunderground v.1.13,2013-09-16 14:55:00,
2013-09-16 11:00:00,61.5,57.9,30.24,NNE,16,1.0,1.0,88,0.00,,,0.12,Wunderground v.1.13,2013-09-16 15:00:00,
2013-09-16 11:10:00,61.7,58.4,30.24,NNE,13,1.0,1.0,89,0.00,,,0.12,Wunderground v.1.13,2013-09-16 15:10:00,
2013-09-16 11:15:00,62.1,58.8,30.24,North,5,0.0,0.0,89,0.00,,,0.12,Wunderground v.1.13,2013-09-16 15:15:00,
2013-09-16 11:20:00,62.5,58.6,30.25,NE,36,0.0,0.0,87,0.00,,,0.12,Wunderground v.1.13,2013-09-16 15:20:00,
2013-09-16 11:25:00,62.5,58.3,30.25,North,5,1.0,1.0,86,0.00,,,0.12,Wunderground v.1.13,2013-09-16 15:25:00,
2013-09-16 11:35:00,62.5,57.6,30.25,NW,309,1.0,2.0,84,0.00,,,0.12,Wunderground v.1.13,2013-09-16 15:35:00,
2013-09-16 11:45:00,62.9,58.0,30.25,NNE,25,1.0,1.0,84,0.00,,,0.12,Wunderground v.1.13,2013-09-16 15:45:00,
2013-09-16 11:55:00,63.5,58.2,30.25,North,5,1.0,1.0,83,0.00,,,0.12,Wunderground v.1.13,2013-09-16 15:55:00,
2013-09-16 12:00:00,63.8,58.2,30.25,North,360,1.0,1.0,82,0.00,,,0.12,Wunderground v.1.13,2013-09-16 16:00:00,
2013-09-16 12:10:00,64.1,57.5,30.25,NNE,30,1.0,2.0,79,0.00,,,0.12,Wunderground v.1.13,2013-09-16 16:10:00,
2013-09-16 12:20:00,63.8,57.5,30.26,NNW,339,1.0,1.0,80,0.00,,,0.12,Wunderground v.1.13,2013-09-16 16:20:00,
2013-09-16 12:25:00,63.7,57.4,30.26,NNW,340,0.0,0.0,80,0.00,,,0.12,Wunderground v.1.13,2013-09-16 16:25:00,
2013-09-16 12:35:00,63.5,57.6,30.26,North,10,1.0,1.0,81,0.00,,,0.12,Wunderground v.1.13,2013-09-16 16:35:00,
2013-09-16 12:45:00,63.7,57.4,30.26,NNW,345,1.0,1.0,80,0.00,,,0.12,Wunderground v.1.13,2013-09-16 16:45:00,
2013-09-16 12:55:00,64.4,57.7,30.26,North,360,1.0,1.0,79,0.00,,,0.12,Wunderground v.1.13,2013-09-16 16:55:00,
2013-09-16 13:05:00,65.2,57.4,30.26,NNW,329,2.0,2.0,76,0.00,,,0.12,Wunderground v.1.13,2013-09-16 17:05:00,
2013-09-16 13:15:00,65.9,57.7,30.25,NNE,33,1.0,2.0,75,0.00,,,0.12,Wunderground v.1.13,2013-09-16 17:15:00,
2013-09-16 13:20:00,66.1,57.2,30.25,NE,49,1.0,1.0,73,0.00,,,0.12,Wunderground v.1.13,2013-09-16 17:20:00,
2013-09-16 13:25:00,66.1,57.2,30.26,NNW,331,1.0,1.0,73,0.00,,,0.12,Wunderground v.1.13,2013-09-16 17:25:00,
2013-09-16 13:35:00,66.2,57.3,30.25,NNW,344,1.0,1.0,73,0.00,,,0.12,Wunderground v.1.13,2013-09-16 17:35:00,
2013-09-16 13:45:00,66.5,57.6,30.25,NNW,346,0.0,0.0,73,0.00,,,0.12,Wunderground v.1.13,2013-09-16 17:45:00,
2013-09-16 13:50:00,66.6,57.7,30.25,North,355,0.0,0.0,73,0.00,,,0.12,Wunderground v.1.13,2013-09-16 17:50:00,
2013-09-16 13:55:00,66.5,57.6,30.25,North,349,1.0,1.0,73,0.00,,,0.12,Wunderground v.1.13,2013-09-16 17:55:00,
2013-09-16 14:00:00,66.4,57.5,30.25,NNW,348,0.0,0.0,73,0.00,,,0.12,Wunderground v.1.13,2013-09-16 18:00:00,
2013-09-16 14:10:00,66.3,58.1,30.25,NE,41,1.0,1.0,75,0.00,,,0.12,Wunderground v.1.13,2013-09-16 18:10:00,
2013-09-16 14:15:00,66.8,58.6,30.25,NE,34,1.0,1.0,75,0.00,,,0.12,Wunderground v.1.13,2013-09-16 18:15:00,
2013-09-16 14:25:00,68.2,57.6,30.25,NNE,31,1.0,1.0,69,0.00,,,0.12,Wunderground v.1.13,2013-09-16 18:25:00,
2013-09-16 14:35:00,68.4,56.2,30.25,WNW,292,2.0,3.0,65,0.00,,,0.12,Wunderground v.1.13,2013-09-16 18:35:00,
2013-09-16 14:40:00,67.8,56.4,30.25,WNW,287,2.0,2.0,67,0.00,,,0.12,Wunderground v.1.13,2013-09-16 18:40:00,
2013-09-16 14:50:00,67.5,56.6,30.24,WNW,286,1.0,2.0,68,0.00,,,0.12,Wunderground v.1.13,2013-09-16 18:50:00,
2013-09-16 14:55:00,67.9,56.5,30.24,WNW,286,1.0,1.0,67,0.00,,,0.12,Wunderground v.1.13,2013-09-16 18:55:00,
2013-09-16 15:00:00,68.2,55.6,30.24,WNW,294,0.0,0.0,64,0.00,,,0.12,Wunderground v.1.13,2013-09-16 19:00:00,
2013-09-16 15:10:00,68.0,55.8,30.23,NE,41,1.0,1.0,65,0.00,,,0.12,Wunderground v.1.13,2013-09-16 19:10:00,
2013-09-16 15:15:00,68.5,55.0,30.24,NNW,330,1.0,3.0,62,0.00,,,0.12,Wunderground v.1.13,2013-09-16 19:15:00,
2013-09-16 15:20:00,69.0,55.4,30.23,NW,317,1.0,1.0,62,0.00,,,0.12,Wunderground v.1.13,2013-09-16 19:20:00,
2013-09-16 15:25:00,69.1,56.0,30.23,NW,319,1.0,1.0,63,0.00,,,0.12,Wunderground v.1.13,2013-09-16 19:25:00,
2013-09-16 15:35:00,68.7,55.6,30.23,NW,319,0.0,0.0,63,0.00,,,0.12,Wunderground v.1.13,2013-09-16 19:35:00,
2013-09-16 15:40:00,68.9,55.8,30.23,North,11,0.0,1.0,63,0.00,,,0.12,Wunderground v.1.13,2013-09-16 19:40:00,
2013-09-16 15:45:00,69.5,55.5,30.23,North,11,0.0,1.0,61,0.00,,,0.12,Wunderground v.1.13,2013-09-16 19:45:00,
2013-09-16 15:55:00,69.6,54.6,30.23,West,266,1.0,5.0,59,0.00,,,0.12,Wunderground v.1.13,2013-09-16 19:55:00,
2013-09-16 16:00:00,69.7,54.7,30.23,WNW,298,2.0,2.0,59,0.00,,,0.12,Wunderground v.1.13,2013-09-16 20:00:00,
2013-09-16 16:10:00,70.1,55.6,30.22,NW,306,1.0,1.0,60,0.00,,,0.12,Wunderground v.1.13,2013-09-16 20:10:00,
2013-09-16 16:15:00,70.6,54.1,30.22,WSW,254,1.0,5.0,56,0.00,,,0.12,Wunderground v.1.13,2013-09-16 20:15:00,
2013-09-16 16:25:00,70.9,54.9,30.22,NNE,15,2.0,2.0,57,0.00,,,0.12,Wunderground v.1.13,2013-09-16 20:25:00,
2013-09-16 16:35:00,70.8,55.3,30.22,WNW,303,0.0,0.0,58,0.00,,,0.12,Wunderground v.1.13,2013-09-16 20:35:00,
2013-09-16 16:45:00,70.4,55.8,30.22,WNW,303,0.0,3.0,60,0.00,,,0.12,Wunderground v.1.13,2013-09-16 20:45:00,
2013-09-16 16:55:00,70.8,54.3,30.22,NW,313,1.0,1.0,56,0.00,,,0.12,Wunderground v.1.13,2013-09-16 20:55:00,
2013-09-16 17:05:00,71.4,54.4,30.22,NW,309,1.0,1.0,55,0.00,,,0.12,Wunderground v.1.13,2013-09-16 21:05:00,
2013-09-16 17:10:00,71.8,53.7,30.22,WNW,288,1.0,6.0,53,0.00,,,0.12,Wunderground v.1.13,2013-09-16 21:10:00,
2013-09-16 17:20:00,71.5,54.0,30.22,WNW,288,5.0,5.0,54,0.00,,,0.12,Wunderground v.1.13,2013-09-16 21:20:00,
2013-09-16 17:30:00,71.8,54.3,30.22,NW,306,3.0,3.0,54,0.00,,,0.12,Wunderground v.1.13,2013-09-16 21:30:00,
2013-09-16 17:40:00,72.6,54.5,30.22,NNW,340,0.0,1.0,53,0.00,,,0.12,Wunderground v.1.13,2013-09-16 21:40:00,
2013-09-16 17:50:00,72.6,51.8,30.22,North,5,1.0,1.0,48,0.00,,,0.12,Wunderground v.1.13,2013-09-16 21:50:00,
2013-09-16 17:55:00,72.2,53.6,30.22,North,349,1.0,1.0,52,0.00,,,0.12,Wunderground v.1.13,2013-09-16 21:55:00,
2013-09-16 18:00:00,71.6,54.6,30.22,North,349,0.0,1.0,55,0.00,,,0.12,Wunderground v.1.13,2013-09-16 22:00:00,
2013-09-16 18:10:00,70.3,53.9,30.23,North,350,0.0,0.0,56,0.00,,,0.12,Wunderground v.1.13,2013-09-16 22:10:00,
2013-09-16 18:15:00,69.8,54.4,30.23,North,350,0.0,0.0,58,0.00,,,0.12,Wunderground v.1.13,2013-09-16 22:15:00,
2013-09-16 18:25:00,70.0,54.5,30.23,North,350,0.0,0.0,58,0.00,,,0.12,Wunderground v.1.13,2013-09-16 22:25:00,
2013-09-16 18:35:00,69.9,54.4,30.23,North,355,0.0,0.0,58,0.00,,,0.12,Wunderground v.1.13,2013-09-16 22:35:00,
2013-09-16 18:45:00,69.0,54.1,30.23,NE,35,1.0,2.0,59,0.00,,,0.12,Wunderground v.1.13,2013-09-16 22:45:00,
2013-09-16 18:50:00,68.6,54.6,30.23,NW,323,1.0,1.0,61,0.00,,,0.12,Wunderground v.1.13,2013-09-16 22:50:00,
2013-09-16 19:00:00,67.9,54.4,30.23,NW,315,1.0,1.0,62,0.00,,,0.12,Wunderground v.1.13,2013-09-16 23:00:00,
2013-09-16 19:10:00,67.1,54.1,30.24,North,10,1.0,4.0,63,0.00,,,0.12,Wunderground v.1.13,2013-09-16 23:10:00,
2013-09-16 19:20:00,66.2,54.5,30.24,NNW,348,1.0,2.0,66,0.00,,,0.12,Wunderground v.1.13,2013-09-16 23:20:00,
2013-09-16 19:30:00,65.4,54.2,30.24,North,5,0.0,0.0,67,0.00,,,0.12,Wunderground v.1.13,2013-09-16 23:30:00,
2013-09-16 19:40:00,64.4,54.4,30.24,North,5,0.0,0.0,70,0.00,,,0.12,Wunderground v.1.13,2013-09-16 23:40:00,
2013-09-16 19:45:00,63.9,54.3,30.24,NNW,340,0.0,0.0,71,0.00,,,0.12,Wunderground v.1.13,2013-09-16 23:45:00,
2013-09-16 19:55:00,63.0,53.8,30.25,North,5,0.0,0.0,72,0.00,,,0.12,Wunderground v.1.13,2013-09-16 23:55:00,
2013-09-16 20:05:00,62.2,53.4,30.25,North,360,0.0,0.0,73,0.00,,,0.12,Wunderground v.1.13,2013-09-17 00:05:00,
2013-09-16 20:15:00,61.5,53.1,30.25,North,355,0.0,0.0,74,0.00,,,0.12,Wunderground v.1.13,2013-09-17 00:15:00,
2013-09-16 20:25:00,60.9,52.9,30.26,North,5,1.0,1.0,75,0.00,,,0.12,Wunderground v.1.13,2013-09-17 00:25:00,
2013-09-16 20:35:00,60.5,52.9,30.26,North,355,0.0,0.0,76,0.00,,,0.12,Wunderground v.1.13,2013-09-17 00:35:00,
2013-09-16 20:40:00,60.3,53.1,30.27,NNW,331,0.0,0.0,77,0.00,,,0.12,Wunderground v.1.13,2013-09-17 00:40:00,
2013-09-16 20:45:00,60.0,53.1,30.27,NNW,338,0.0,0.0,78,0.00,,,0.12,Wunderground v.1.13,2013-09-17 00:45:00,
2013-09-16 20:55:00,59.5,52.3,30.28,NW,306,1.0,4.0,77,0.00,,,0.12,Wunderground v.1.13,2013-09-17 00:55:00,
2013-09-16 21:05:00,59.2,52.3,30.28,NNW,338,1.0,1.0,78,0.00,,,0.12,Wunderground v.1.13,2013-09-17 01:05:00,
2013-09-16 21:15:00,59.0,52.1,30.28,NNW,336,1.0,1.0,78,0.00,,,0.12,Wunderground v.1.13,2013-09-17 01:15:00,
2013-09-16 21:25:00,58.6,52.1,30.29,North,355,1.0,1.0,79,0.00,,,0.12,Wunderground v.1.13,2013-09-17 01:25:00,
2013-09-16 21:35:00,58.1,51.6,30.29,NNW,338,1.0,1.0,79,0.00,,,0.12,Wunderground v.1.13,2013-09-17 01:35:00,
2013-09-16 21:45:00,57.8,51.3,30.29,NNW,344,1.0,1.0,79,0.00,,,0.12,Wunderground v.1.13,2013-09-17 01:45:00,
2013-09-16 21:50:00,57.7,51.2,30.29,NNW,330,1.0,1.0,79,0.00,,,0.12,Wunderground v.1.13,2013-09-17 01:50:00,
2013-09-16 21:55:00,57.6,51.5,30.30,NNW,338,1.0,2.0,80,0.00,,,0.12,Wunderground v.1.13,2013-09-17 01:55:00,
2013-09-16 22:05:00,57.4,51.6,30.30,NNW,346,1.0,4.0,81,0.00,,,0.12,Wunderground v.1.13,2013-09-17 02:05:00,
2013-09-16 22:15:00,57.0,51.2,30.30,North,5,1.0,1.0,81,0.00,,,0.12,Wunderground v.1.13,2013-09-17 02:15:00,
2013-09-16 22:25:00,56.8,51.4,30.30,NNE,18,1.0,1.0,82,0.00,,,0.12,Wunderground v.1.13,2013-09-17 02:25:00,
2013-09-16 22:30:00,56.6,51.2,30.30,North,360,1.0,3.0,82,0.00,,,0.12,Wunderground v.1.13,2013-09-17 02:30:00,
2013-09-16 22:35:00,56.4,51.0,30.30,NNE,19,1.0,1.0,82,0.00,,,0.12,Wunderground v.1.13,2013-09-17 02:35:00,
2013-09-16 22:40:00,56.3,50.9,30.30,NNE,21,1.0,2.0,82,0.00,,,0.12,Wunderground v.1.13,2013-09-17 02:40:00,
2013-09-16 22:50:00,56.0,50.9,30.31,NW,321,0.0,4.0,83,0.00,,,0.12,Wunderground v.1.13,2013-09-17 02:50:00,
2013-09-16 22:55:00,55.8,50.7,30.31,NNW,334,1.0,1.0,83,0.00,,,0.12,Wunderground v.1.13,2013-09-17 02:55:00,
2013-09-16 23:05:00,55.5,50.7,30.31,NNE,22,1.0,1.0,84,0.00,,,0.12,Wunderground v.1.13,2013-09-17 03:05:00,
2013-09-16 23:10:00,55.4,50.6,30.31,NNE,15,1.0,1.0,84,0.00,,,0.12,Wunderground v.1.13,2013-09-17 03:10:00,
2013-09-16 23:15:00,55.3,50.5,30.31,NNE,19,1.0,1.0,84,0.00,,,0.12,Wunderground v.1.13,2013-09-17 03:15:00,
2013-09-16 23:25:00,55.0,50.6,30.31,North,5,0.0,0.0,85,0.00,,,0.12,Wunderground v.1.13,2013-09-17 03:25:00,
2013-09-16 23:30:00,54.8,50.4,30.32,North,5,1.0,1.0,85,0.00,,,0.12,Wunderground v.1.13,2013-09-17 03:30:00,
2013-09-16 23:35:00,54.6,50.2,30.32,North,5,0.0,0.0,85,0.00,,,0.12,Wunderground v.1.13,2013-09-17 03:35:00,
2013-09-16 23:45:00,54.4,50.3,30.32,WNW,290,1.0,1.0,86,0.00,,,0.12,Wunderground v.1.13,2013-09-17 03:45:00,
2013-09-16 23:55:00,53.9,49.8,30.32,NW,307,0.0,1.0,86,0.00,,,0.12,Wunderground v.1.13,2013-09-17 03:55:00,